Weather History for KJEF - February, 2014

Change the Weather History Date:

Tuesday, February 11, 2014

  Actual Average Record
Temperature  
Mean Temperature 10 °F -  
Max Temperature 21 °F 45 °F - (-1)
Min Temperature -2 °F 21 °F - (-1)
Degree Days  
Heating Degree Days 56    
Moisture  
Dew Point -5 °F    
Average Humidity 56    
Maximum Humidity 76    
Minimum Humidity 36    
Precipitation  
Precipitation 0.00 in - - ()
Sea Level Pressure  
Sea Level Pressure 30.45 in    
Wind  
Wind Speed 4 mph (SE)    
Max Wind Speed 10 mph    
Max Gust Speed -    
Visibility 10 miles    
Events      
Averages and records for this station are not official NWS values.
T = Trace of Precipitation, MM = Missing Value Source: NWS Daily Summary

Daily Weather History Graph

Daily Weather History Graph

Search for Another Location

Airport or City:

Trip Planner

Search our weather history database for the weather conditions in past years. The results will help you decide how hot, cold, wet, or windy it might be!

Date:

Astronomy

Feb. 11, 2014 Rise Set
Actual Time 7:04 AM CST 5:42 PM CST
Civil Twilight 6:36 AM CST 6:09 PM CST
Nautical Twilight 6:05 AM CST 6:40 PM CST
Astronomical Twilight 5:34 AM CST 7:11 PM CST
Moon 3:03 PM CST (2/11) 4:40 AM CST (2/11)
Length of Visible Light 11h 32m
Length of Day
10h 38m
Waxing Gibbous, 91% of the Moon is Illuminated
Feb 11
Waxing Gibbous
Feb 14
Full
Feb 22
Last Quarter
Mar 1
New
Mar 8
First Quarter

Hourly Weather History & Observations

Time (CST) Temp. Windchill Dew Point Humidity Pressure Visibility Wind Dir Wind Speed Gust Speed Precip Events Conditions
12:53 AM 6.1 °F -4.3 °F -7.1 °F 55% 30.49 in 10.0 mi NE 5.8 mph - N/A   Clear
1:53 AM 3.9 °F -3.4 °F -7.1 °F 60% 30.50 in 10.0 mi ESE 3.5 mph - N/A   Clear
2:53 AM 1.9 °F - -7.1 °F 66% 30.51 in 10.0 mi Calm Calm - N/A   Clear
3:53 AM -0.0 °F - -8.0 °F 69% 30.51 in 10.0 mi Calm Calm - N/A   Clear
4:53 AM -0.0 °F - -8.0 °F 69% 30.52 in 10.0 mi Calm Calm - N/A   Clear
5:53 AM -0.0 °F -7.9 °F -8.0 °F 69% 30.54 in 10.0 mi NW 3.5 mph - N/A   Clear
6:53 AM -2.0 °F - -8.0 °F 76% 30.55 in 10.0 mi Calm Calm - N/A   Clear
7:53 AM -2.0 °F - -9.0 °F 72% 30.56 in 10.0 mi Calm Calm - N/A   Clear
8:53 AM 1.0 °F - -8.0 °F 66% 30.56 in 10.0 mi Calm Calm - N/A   Clear
9:53 AM 3.9 °F -9.4 °F -6.0 °F 64% 30.54 in 10.0 mi SE 8.1 mph - 0.00 in   Clear
10:53 AM 7.0 °F -3.3 °F -5.1 °F 58% 30.55 in 10.0 mi ESE 5.8 mph - N/A   Clear
11:53 AM 10.9 °F 2.9 °F -6.0 °F 47% 30.52 in 10.0 mi SSE 4.6 mph - N/A   Clear
12:53 PM 14.0 °F 5.1 °F -4.0 °F 45% 30.47 in 10.0 mi SE 5.8 mph - N/A   Clear
1:53 PM 16.0 °F 7.4 °F -2.9 °F 43% 30.43 in 10.0 mi SSE 5.8 mph - N/A   Clear
2:53 PM 19.0 °F 10.0 °F -0.9 °F 42% 30.40 in 10.0 mi SE 6.9 mph - N/A   Clear
3:53 PM 19.9 °F 11.1 °F -2.0 °F 38% 30.39 in 10.0 mi SE 6.9 mph - N/A   Clear
4:53 PM 21.0 °F 16.2 °F -2.0 °F 36% 30.37 in 10.0 mi South 3.5 mph - N/A   Clear
5:53 PM 16.0 °F 8.8 °F -0.9 °F 47% 30.35 in 10.0 mi ESE 4.6 mph - N/A   Clear
6:53 PM 17.1 °F 11.7 °F -0.9 °F 45% 30.36 in 10.0 mi ESE 3.5 mph - N/A   Clear
7:53 PM 17.1 °F 8.7 °F -2.0 °F 43% 30.37 in 10.0 mi ESE 5.8 mph - N/A   Clear
8:53 PM 10.9 °F - -2.9 °F 54% 30.36 in 10.0 mi Calm Calm - N/A   Clear
9:53 PM 9.0 °F - -2.0 °F 61% 30.36 in 10.0 mi Calm Calm - N/A   Clear
10:53 PM 8.1 °F -6.2 °F -2.0 °F 64% 30.33 in 10.0 mi SE 10.4 mph - N/A   Clear
11:53 PM 7.0 °F -1.7 °F -2.9 °F 64% 30.32 in 10.0 mi SE 4.6 mph - N/A   Clear